World > North America > United States > Wisconsin

Wisconsin Rapids, Wisconsin Regional Weather

Lat: 44.40N, Lon: 89.84W
Wx Zone: WIZ035Web Search

Helpful Tip: Type the letters wx in the search engine next time you need to find us.

Feedback

Wisconsin Rapids, WI Regional Weather

Expires:202008121300;;333446
ASUS43 KMKX 121221
RWRWI 

WISCONSIN REGIONAL WEATHER ROUNDUP
NATIONAL WEATHER SERVICE MILWAUKEE/SULLIVAN WI
700 AM CDT WED AUG 12 2020

NOTE: "FAIR" INDICATES FEW OR NO CLOUDS BELOW 12,000 FEET WITH NO
SIGNIFICANT WEATHER AND/OR OBSTRUCTIONS TO VISIBILITY.


WIZ029-030-035-036-043>047-121300-
CENTRAL WISCONSIN
  
CITY           SKY/WX    TMP DP  RH WIND       PRES   REMARKS
WAUSAU         CLEAR     59  58  96 CALM      30.11R FOG              
6HR MIN TEMP:  59; 6HR MAX TEMP:  63;                                

MOSINEE        PTCLDY    55  54  94 CALM      30.13R                  
MARSHFIELD     CLEAR     58  55  90 CALM      30.11R                  
6HR MIN TEMP:  57; 6HR MAX TEMP:  65;                                

STEVENS POINT  CLEAR     58  56  96 CALM      30.13S                  
6HR MIN TEMP:  53; 6HR MAX TEMP:  57;                                

WAUPACA        SUNNY     60  58  94 CALM      30.13R                  
6HR MIN TEMP:  57; 6HR MAX TEMP:  60;                                

WAUTOMA        CLEAR     55  54  96 CALM      30.14R                  
6HR MIN TEMP:  53; 6HR MAX TEMP:  57;                                

WISC RAPIDS    CLEAR     57  56  96 CALM      30.13R                  
6HR MIN TEMP:  55; 6HR MAX TEMP:  61;                                

CAMP DOUGLAS   CLEAR     52  52 100 CALM      30.11R                  
$$
 

SKY/WX - Weather  TMP - Temperature  DP - Dew Point  RH - Relative Humidity
WIND - Wind Direction/Speed PRES - Barometric Pressure VSB - Visibility
WCI - Wind Chill Index E13G22 Wind - East Wind 13 mph/Gusts of 22 mph
Wisconsin Rapids Weather Map
UTC Time: 8/12/2020, 12:24
Your Time: